Rifle, CO

9:41 PM MDT on May 21, 2018 (GMT -0600)
Garfield County Regional

Weather History for KRIL - December, 2012

Change the Weather History Date:

Tuesday, December 18, 2012

  Actual Average Record
Temperature  
Mean Temperature 31 °F 24 °F  
Max Temperature 38 °F 35 °F 53 °F (1980)
Min Temperature 23 °F 14 °F -18 °F (1932)
Degree Days  
Heating Degree Days 34 41  
Month to date heating degree days 592 696  
Since 1 July heating degree days 1850 2222  
Cooling Degree Days 0 0  
Month to date cooling degree days 0 0  
Year to date cooling degree days 809 541  
Moisture  
Dew Point 26 °F    
Average Humidity 74    
Maximum Humidity 89    
Minimum Humidity 59    
Precipitation  
Precipitation 0.00 in 0.02 in 0.99 in (1978)
Month to date precipitation 0.05 0.49  
Year to date precipitation 7.33 13.95  
Sea Level Pressure  
Sea Level Pressure 29.66 in    
Wind  
Wind Speed 8 mph (NW)    
Max Wind Speed 29 mph    
Max Gust Speed 37 mph    
Visibility 8 miles    
Events Fog , Snow    
T = Trace of Precipitation, MM = Missing Value Source: NWS Daily Summary

Daily Weather History Graph

Daily Weather History Graph

Search for Another Location

Airport or City:

Astronomy

Dec. 18, 2012 Rise Set
Actual Time 7:26 AM MST 4:49 PM MST
Civil Twilight 6:56 AM MST 5:19 PM MST
Nautical Twilight 6:22 AM MST 5:53 PM MST
Astronomical Twilight 5:49 AM MST 6:26 PM MST
Moon 11:09 AM MST (12/18) 11:16 PM MST (12/18)
Length of Visible Light 10h 23m
Length of Day
9h 22m
Waxing Crescent, 35% of the Moon is Illuminated
Dec 18
Waxing Crescent
Dec 19
First Quarter
Dec 28
Full
Jan 4
Last Quarter
Jan 11
New

Hourly Weather History & Observations

Time (MST) Temp. Windchill Dew Point Humidity Pressure Visibility Wind Dir Wind Speed Gust Speed Precip Events Conditions
12:53 AM 35.1 °F 29.3 °F 24.1 °F 64% 29.81 in 10.0 mi WSW 6.9 mph - N/A   Overcast
1:53 AM 35.1 °F 30.1 °F 25.0 °F 67% 29.79 in 10.0 mi WSW 5.8 mph - N/A   Overcast
2:53 AM 35.1 °F 26.9 °F 25.0 °F 67% 29.79 in 10.0 mi WSW 11.5 mph - N/A   Mostly Cloudy
3:53 AM 34.0 °F 28.8 °F 26.1 °F 73% 29.79 in 10.0 mi West 5.8 mph - N/A   Overcast
5:53 AM 35.1 °F 26.9 °F 25.0 °F 67% 29.78 in 10.0 mi West 11.5 mph - N/A   Overcast
6:53 AM 35.1 °F 27.9 °F 26.1 °F 70% 29.79 in 10.0 mi West 9.2 mph - N/A   Overcast
7:53 AM 35.1 °F 28.6 °F 25.0 °F 67% 29.78 in 10.0 mi WSW 8.1 mph - N/A   Overcast
8:53 AM 36.0 °F 29.6 °F 26.1 °F 67% 29.77 in 10.0 mi WSW 8.1 mph - N/A   Overcast
9:53 AM 37.0 °F 31.6 °F 26.1 °F 65% 29.77 in 10.0 mi East 6.9 mph - N/A   Overcast
10:53 AM 37.9 °F 33.5 °F 26.1 °F 62% 29.74 in 10.0 mi ESE 5.8 mph - 0.00 in   Overcast
11:53 AM 37.0 °F - 27.0 °F 67% 29.71 in 10.0 mi Calm Calm - N/A   Overcast
12:53 PM 37.0 °F 31.6 °F 28.0 °F 70% 29.68 in 10.0 mi East 6.9 mph - 0.00 in   Overcast
1:53 PM 37.0 °F 31.6 °F 28.9 °F 73% 29.65 in 10.0 mi East 6.9 mph - N/A   Overcast
2:53 PM 37.0 °F 32.4 °F 28.9 °F 73% 29.62 in 10.0 mi ENE 5.8 mph - N/A   Overcast
3:53 PM 36.0 °F 30.3 °F 30.0 °F 79% 29.60 in 10.0 mi ENE 6.9 mph - N/A   Overcast
4:53 PM 35.1 °F 28.6 °F 30.0 °F 82% 29.59 in 10.0 mi East 8.1 mph - N/A   Overcast
5:53 PM 35.1 °F 30.1 °F 30.0 °F 82% 29.58 in 10.0 mi East 5.8 mph - N/A   Overcast
6:53 PM 35.1 °F 31.0 °F 30.0 °F 82% 29.56 in 10.0 mi NE 4.6 mph - N/A   Overcast
7:53 PM 34.0 °F - 30.0 °F 85% 29.56 in 10.0 mi Calm Calm - 0.00 in   Overcast
8:53 PM 34.0 °F 29.8 °F 30.0 °F 85% 29.54 in 10.0 mi West 4.6 mph - 0.00 in   Overcast
9:43 PM 28.4 °F 18.5 °F 24.8 °F 86% 29.54 in 3.0 mi NW 11.5 mph 17.3 mph 0.00 in Snow Light Snow
9:50 PM 28.4 °F 18.0 °F 24.8 °F 86% 29.54 in 1.8 mi NW 12.7 mph 23.0 mph 0.00 in Snow Light Snow
9:53 PM 27.0 °F 14.3 °F 24.1 °F 89% 29.57 in 1.8 mi NW 17.3 mph 25.3 mph 0.00 in Snow Light Snow
10:00 PM 26.6 °F 11.4 °F 23.0 °F 86% 29.55 in 1.2 mi NW 25.3 mph 32.2 mph 0.00 in Snow Light Snow
10:06 PM 26.6 °F 11.1 °F 23.0 °F 86% 29.54 in 0.8 mi NW 26.5 mph 33.4 mph 0.00 in Snow Light Snow
10:28 PM 24.8 °F 9.3 °F 21.2 °F 86% 29.54 in 0.5 mi NW 24.2 mph 36.8 mph 0.00 in Fog , Snow Snow
10:53 PM 24.1 °F 8.0 °F 21.9 °F 91% 29.58 in 0.2 mi NW 25.3 mph 31.1 mph 0.00 in Fog , Snow Heavy Snow
11:53 PM 23.0 °F 8.3 °F 19.9 °F 88% 29.61 in 0.8 mi NW 19.6 mph 28.8 mph 0.00 in Snow Light Snow